Zurück zum Katalog

BREEZE-M DEB

AktivHEO
NORAD 43407·DEBRIS·🇷🇺 Russia

Gestartet Apr 15, 2013 von Baikonur Cosmodrome

Loading…

Nächste Überflüge (nächste 24 Stunden)

TLE

AktuellSource: Space-Track

Epoche: Sep 12, 2026, 10:06 UTC

1 43407U 13014D   26255.42120973 -.00000156  00000-0  00000-0 0  9998
2 43407  15.6487 345.7357 4842536 246.5037  56.3982  1.91516937 77036

Verfolge BREEZE-M DEB in Echtzeit mit AllMySat

Download on the App Store